Montauk, NY

7:07 PM EDT on June 27, 2017 (GMT -0400)
Montauk

Weather History for KMTP - December, 2012

Change the Weather History Date:

Thursday, December 20, 2012

  Actual Average (KHTO) Record (KHTO)
Temperature  
Mean Temperature 42 °F -  
Max Temperature 45 °F 41 °F 58 °F (1957)
Min Temperature 39 °F 26 °F -6 °F (1942)
Degree Days  
Heating Degree Days 24    
Moisture  
Dew Point 30 °F    
Average Humidity 65    
Maximum Humidity 68    
Minimum Humidity 58    
Precipitation  
Precipitation 0.00 in - - ()
Sea Level Pressure  
Sea Level Pressure 30.13 in    
Wind  
Wind Speed 9 mph (NNE)    
Max Wind Speed 14 mph    
Max Gust Speed 22 mph    
Averages and records for this station are not official NWS values.
T = Trace of Precipitation, MM = Missing Value Source: NWS Daily Summary

Daily Weather History Graph

Daily Weather History Graph

Search for Another Location

Airport or City:

Trip Planner

Search our weather history database for the weather conditions in past years. The results will help you decide how hot, cold, wet, or windy it might be!

Date:

Astronomy

Dec. 20, 2012 Rise Set
Actual Time 7:09 AM EST 4:22 PM EST
Civil Twilight 6:37 AM EST 4:53 PM EST
Nautical Twilight 6:03 AM EST 5:27 PM EST
Astronomical Twilight 5:29 AM EST 6:01 PM EST
Moon 11:41 AM EST (12/20) No Moon Set
Length of Visible Light 10h 15m
Length of Day
9h 12m
First Quarter, 55% of the Moon is Illuminated
Dec 20
First Quarter
Dec 28
Full
Jan 4
Last Quarter
Jan 11
New
Jan 18
First Quarter

Hourly Weather History & Observations

Time (EST) Temp. Windchill Dew Point Humidity Pressure Visibility Wind Dir Wind Speed Gust Speed Precip Events Conditions
12:54 AM 41.0 °F 33.9 °F 30.0 °F 65% 30.08 in - NW 12.7 mph - N/A   Unknown
1:54 AM 41.0 °F 33.5 °F 28.9 °F 62% 30.09 in - NW 13.8 mph 20.7 mph N/A   Unknown
2:54 AM 39.9 °F 32.1 °F 28.9 °F 65% 30.12 in - NNW 13.8 mph 21.9 mph N/A   Unknown
3:54 AM 39.9 °F 33.4 °F 28.0 °F 63% 30.12 in - NNW 10.4 mph - N/A   Unknown
4:54 AM 39.9 °F 33.4 °F 28.0 °F 63% 30.13 in - NNW 10.4 mph - N/A   Unknown
5:54 AM 39.0 °F 34.0 °F 28.0 °F 65% 30.14 in - North 6.9 mph - N/A   Unknown
6:54 AM 39.0 °F 34.0 °F 28.0 °F 65% 30.17 in - NNW 6.9 mph - N/A   Unknown
7:54 AM 39.0 °F 34.8 °F 28.9 °F 67% 30.18 in - North 5.8 mph - N/A   Unknown
8:54 AM 39.9 °F 34.5 °F 28.9 °F 65% 30.21 in - North 8.1 mph - N/A   Unknown
9:54 AM 41.0 °F 35.8 °F 30.0 °F 65% 30.21 in - North 8.1 mph - N/A   Unknown
10:54 AM 43.0 °F 39.5 °F 28.9 °F 58% 30.19 in - NNE 5.8 mph - N/A   Unknown
12:54 PM 44.1 °F 41.5 °F 30.9 °F 60% 30.16 in - ENE 4.6 mph - N/A   Unknown
1:54 PM 43.0 °F 40.3 °F 30.9 °F 62% 30.13 in - Variable 4.6 mph - N/A   Unknown
3:54 PM 43.0 °F 40.3 °F 32.0 °F 65% 30.11 in - Variable 4.6 mph - N/A   Unknown
4:54 PM 43.0 °F 39.5 °F 33.1 °F 68% 30.13 in - East 5.8 mph - N/A   Unknown
5:54 PM 43.0 °F 40.3 °F 33.1 °F 68% 30.12 in - ESE 4.6 mph - N/A   Unknown
6:54 PM 43.0 °F 40.3 °F 33.1 °F 68% 30.10 in - East 4.6 mph - N/A   Unknown
8:54 PM 44.1 °F 39.5 °F 34.0 °F 68% 30.09 in - ESE 8.1 mph - N/A   Unknown
10:54 PM 45.0 °F 40.1 °F 35.1 °F 68% 30.01 in - East 9.2 mph - N/A   Unknown